Location: Unspecified
(42.9300°N, 71.1866°W)
Time: 12:25:38
(UTC-04:00)

Cosmos 2058 - Visible Passes

Search period start: 28 May 2017 00:00
Search period end: 07 June 2017 00:00
Orbit: 563 x 585 km, 82.5° (Epoch: 27 May)

Date Brightness Start Highest point End Pass type
(mag) Time Alt. Az. Time Alt. Az. Time Alt. Az.
28 May 4.2 01:55:55 29° ESE 01:56:33 30° E 02:00:10 10° NNE visible
28 May 4.5 03:32:09 18° W 03:33:31 21° WNW 03:36:41 10° NNW visible
29 May 3.7 01:59:22 38° ESE 01:59:52 40° E 02:03:44 10° NNE visible
29 May 4.8 03:35:36 14° W 03:37:00 16° WNW 03:39:38 10° NNW visible
30 May 3.2 02:02:48 52° ESE 02:03:11 55° E 02:07:15 10° NNE visible
30 May 5.1 03:39:02 11° W 03:40:31 12° WNW 03:42:19 10° NW visible
31 May 2.8 02:06:14 70° SE 02:06:32 75° E 02:10:41 10° NNE visible
01 Jun 2.7 02:09:38 75° SW 02:09:55 81° W 02:14:04 10° N visible
02 Jun 5.5 00:36:49 11° E 00:36:57 11° E 00:37:58 10° ENE visible
02 Jun 3.0 02:13:02 58° W 02:13:17 59° W 02:17:23 10° N visible
03 Jun 5.2 00:40:12 14° E 00:40:12 14° E 00:42:27 10° NE visible
03 Jun 3.4 02:16:25 43° W 02:16:42 44° WNW 02:20:41 10° N visible
04 Jun 4.9 00:43:34 19° E 00:43:34 19° E 00:46:23 10° NE visible
04 Jun 3.9 02:19:47 32° W 02:20:07 33° WNW 02:23:54 10° N visible
05 Jun 4.5 00:46:56 25° E 00:46:56 25° E 00:50:07 10° NE visible
05 Jun 4.3 02:23:09 25° W 02:23:34 25° WNW 02:27:04 10° NNW visible
06 Jun 4.1 00:50:16 32° E 00:50:16 32° E 00:53:45 10° NNE visible
06 Jun 4.7 02:26:30 19° W 02:27:02 20° WNW 02:30:06 10° NNW visible
